Regional Weather Roundup
Issued by NWS Charleston, SC

Current Version | Previous Version | Graphics & Text | Print | Product List | Glossary On
Versions: 1 2 3 4 5 6 7 8 9 10 11 12 13 14 15 16 17 18 19 20 21 22 23 24 25 26 27 28 29 30 31 32 33 34 35 36 37 38 39 40 41 42 43 44 45 46 47 48 49 50
000
ASUS42 KCHS 021027
RWRCHS

REGIONAL WEATHER ROUNDUP
NATIONAL WEATHER SERVICE CHARLESTON SC
500 AM EST MON MAR 02 2015

NOTE: "FAIR" INDICATES FEW OR NO CLOUDS BELOW 12,000 FEET WITH NO
SIGNIFICANT WEATHER AND/OR OBSTRUCTIONS TO VISIBILITY.

NOT ALL STATIONS ARE QUALITY CONTROLLED BY THE NATIONAL
WEATHER SERVICE. USE DATA WITH CAUTION...ESPECIALLY
DEWPOINT OBSERVATIONS.

SCZ027-030-031-034>040-042>050-021100-
...SOUTHEAST SOUTH CAROLINA...

CITY           SKY/WX    TMP DP  RH WIND       PRES   REMARKS
N CHARLESTON   FOG       45  44  97 SW5       30.29F VSB 1/8
WATERFRONT PRK   N/A     46 N/A N/A SW3         N/A
MOUNT PLEASANT FOG       45  45 100 SW3       30.29R VSB 1/4
PINOPOLIS        N/A     46  46 100 SW6       30.19S
MONCKS CORNER  CLOUDY    46  45  93 SW3       30.27F FOG
SUMMERVILLE    NOT AVBL
BEAUFORT MCAS  FOG       46  46 100 S3        30.30F VSB 3/4
BEAUFORT ARPT  FOG       46  46 100 CALM      30.29F VSB 3/4
HILTON HEAD IS NOT AVBL
WALTERBORO     FOG       45  45 100 S5        30.29S VSB 3/4
ALLENDALE      FOG       45  45 100 CALM      30.28R VSB 1/2

...SOUTHERN MIDLANDS AND PEE DEE...

CITY           SKY/WX    TMP DP  RH WIND       PRES   REMARKS
GEORGETOWN     NOT AVBL
KINGSTREE      NOT AVBL
ORANGEBURG     FOG       44  42  93 SW6       30.26F VSB 1/4
BARNWELL       CLOUDY    45  45 100 W6        30.29R FOG
AIKEN          FOG       43  43 100 SW10      30.30R VSB 1/2
MANNING        FOG      N/A N/A N/A S3        30.26F VSB 1
COLUMBIA       CLOUDY    46  44  93 SW6       30.24S FOG
SUMTER         FOG       43  43 100 SW5       30.23R VSB 3/4
FLORENCE       FOG       43  42  97 SW6       30.25R VSB 1
MYRTLE BEACH   CLOUDY    45  43  93 SW3       30.27F VSB 1/2
N MYRTLE BEACH FOG       44  43  96 SW3       30.25S VSB 1/2

$$

GAZ063-065-086>088-099>101-113>116-118-119-134>141-150-021100-
...SOUTHEAST GEORGIA...

CITY           SKY/WX    TMP DP  RH WIND       PRES   REMARKS
SAVANNAH ARPT  FOG       47  45  93 CALM      30.30F VSB 1
HUNTER AAF     CLOUDY    48  48 100 CALM      30.28R
FORT STEWART   CLOUDY    48  48 100 CALM      30.28F FOG
STATESBORO     FOG       46  46 100 NW3       30.31R VSB 1/4
SYLVANIA       FOG       46  46 100 CALM      30.31R VSB 1/2
CLAXTON        FOG       46  46 100 CALM      30.30S VSB 1/4

...CSRA...CENTRAL AND FAR SOUTHEAST GEORGIA...

CITY           SKY/WX    TMP DP  RH WIND       PRES   REMARKS
THOMSON        CLOUDY    46  46 100 SW3       30.32S VSB 3/4
AUGUSTA-BUSH   CLOUDY    44  43  96 W3        30.29S
AUGUSTA-DANIEL CLOUDY    46  44  93 W3        30.28F FOG
SWAINSBORO     FOG       46  46 100 CALM      30.29F VSB 1
VIDALIA        FOG       46  46 100 NW7       30.32R VSB 1/4
EASTMAN        CLOUDY    47  47 100 CALM      30.32F FOG
HAZLEHURST     RAIN      50  50 100 N13G21    30.30R VSB 1/2
ALMA           FOG       50  50 100 CALM      30.29F VSB 1/4
WAYCROSS       FOG       55  55 100 SE5       30.28F VSB 1/4
JESUP          FOG       54  52  94 CALM      30.30S VSB 1/4
BAXLEY         FOG       52  50  93 CALM      30.27F VSB 1/4
BRUNSWICK      CLOUDY    52  52 100 CALM      30.31F
SAINT SIMONS   CLOUDY    52  52 100 CALM      30.31F FOG

$$

SCZ027-028-034-036>038-045-046-048>050-GAZ119-141-021100-
...LAKE AND SUPPLEMENTAL COASTAL OBSERVATIONS...

STATION/POSITION TIME  TEMP    WIND        PRES    WAVE   SWELL
                       AIR SEA DIR/SP/G            HT/PER HT/PER/DIR
                 (UTC) (F)     (DEG/KT/KT) (MB)    (FT/S) (FT/S/D)
UPR LAKE MARION  NOT AVBL
WINYAH BAY       NOT AVBL
LAKE MURRAY      1000   45     270/  4/  6 1023.4S
ACE BASIN NERRS  NOT AVBL
FORT PULASKI     1000   47 48  160/  1/  2 1026.3F
SAPELO ISLAND    0900   50        CALM     1026.0F

$$

ANZ835-935-AMZ111-154-330-350-352-354-370-450-454-472-021100-
...C-MAN AND BUOY OBSERVATIONS...

STATION/POSITION TIME  TEMP    WIND        PRES    WAVE   SWELL
                       AIR SEA DIR/SP/G            HT/PER HT/PER/DIR
                 (UTC) (F)     (DEG/KT/KT) (MB)    (FT/S) (FT/S/D)
BUOY 41004       0950   57 69  270/  4/  6 1024.7F   4/ 8   5/ 8
BUOY 41008       0950   50 55  320/  6/  8 1026.2F   4/ 9   3/100/ 9
FOLLY BEACH CMAN 1000   45     260/  4/  6 1026.3F
CAPERS NEARSHORE NOT AVBL
FRIPP NEARSHORE  0900   46     260/  4/  4 1025.3F


STATION/POSITION TIME  TEMP    WIND        PRES    WAVE   SWELL
                       AIR SEA DIR/SP/G            HT/PER HT/PER/DIR
                 (UTC) (F)     (DEG/KT/KT) (MB)    (FT/S) (FT/S/D)
5E ST. MARYS GA  0921      52                N/A     4/ 9   2/ 90/11
FRYING PAN BUOY  0950   59 62  210/ 12/ 12 1023.8F   4/ 8   3/110/ 8
BUOY 41025       NOT AVBL
CAPE LOOKOUT NC  1000   45     260/ 11/ 13 1023.0R
BUOY 41002       0950   71 72  220/ 14/ 17 1025.0S   6/ 9   5/100/ 9
BUOY 41010       0920   73 75  160/  6/  8 1025.1F
ST AUGUSTINE FL  1000   53     350/ 10/ 11 1026.8F


$$


USA.gov is the U.S. government's official web portal to all federal, state and local government web resources and services.